Weather History for Franklin, PA

Change the Weather History Date:

Wednesday, February 20, 2013

  Actual Average Record
Temperature  
Mean Temperature 16 °F -  
Max Temperature 17 °F 38 °F 65 °F (1930)
Min Temperature 14 °F 21 °F -20 °F (1936)
Degree Days  
Heating Degree Days 50    
Moisture  
Dew Point 10 °F    
Average Humidity 74    
Maximum Humidity 79    
Minimum Humidity 63    
Precipitation  
Precipitation 0.00 in - - ()
Sea Level Pressure  
Sea Level Pressure 29.99 in    
Wind  
Wind Speed 13 mph (WSW)    
Max Wind Speed 20 mph    
Max Gust Speed 28 mph    
Visibility 5 miles    
Events      
Averages and records for this station are not official NWS values.
T = Trace of Precipitation, MM = Missing Value Source: NWS Daily Summary

Daily Weather History Graph

Daily Weather History Graph

Search for Another Location

Airport:

Trip Planner

Search our weather history database for the weather conditions in past years. The results will help you decide how hot, cold, wet, or windy it might be!

Date:

Astronomy

Feb. 20, 2013 Rise Set
Actual Time 7:07 AM EST 5:59 PM EST
Civil Twilight 6:39 AM EST 6:27 PM EST
Nautical Twilight 6:06 AM EST 7:00 PM EST
Astronomical Twilight 5:34 AM EST 7:32 PM EST
Moon 1:17 PM EST (2/20) 3:28 AM EST (2/20)
Length of Visible Light 11h 48m
Length of Day
10h 52m
Waxing Gibbous, 76% of the Moon is Illuminated
Feb 20
Waxing Gibbous
Feb 25
Full
Mar 4
Last Quarter
Mar 11
New
Mar 19
First Quarter

Hourly Weather History & Observations

Time (EST) Temp. Windchill Dew Point Humidity Pressure Visibility Wind Dir Wind Speed Gust Speed Precip Events Conditions
12:15 AM 17.6 °F 3.7 °F 10.4 °F 73% 29.85 in 5.0 mi West 13.8 mph 20.7 mph N/A   Overcast
12:35 AM 17.6 °F 2.7 °F 10.4 °F 73% 29.85 in 8.0 mi WSW 16.1 mph 24.2 mph N/A   Mostly Cloudy
12:55 AM 17.6 °F 4.3 °F 10.4 °F 73% 29.86 in 4.0 mi West 12.7 mph 20.7 mph N/A   Overcast
1:15 AM 17.6 °F 1.3 °F 8.6 °F 68% 29.86 in 4.0 mi West 19.6 mph 26.5 mph N/A   Overcast
1:35 AM 15.8 °F 2.7 °F 8.6 °F 73% 29.87 in 6.0 mi WSW 11.5 mph - N/A   Overcast
1:55 AM 15.8 °F 2.7 °F 10.4 °F 79% 29.87 in 4.0 mi WSW 11.5 mph 17.3 mph N/A   Overcast
2:15 AM 15.8 °F 2.7 °F 8.6 °F 73% 29.87 in 5.0 mi WSW 11.5 mph 25.3 mph N/A   Overcast
2:35 AM 15.8 °F 0.9 °F 8.6 °F 73% 29.88 in 6.0 mi WSW 15.0 mph 21.9 mph N/A   Overcast
2:55 AM 15.8 °F 4.2 °F 10.4 °F 79% 29.88 in 7.0 mi WSW 9.2 mph 16.1 mph N/A   Overcast
3:15 AM 15.8 °F 2.7 °F 8.6 °F 73% 29.87 in 5.0 mi WSW 11.5 mph 20.7 mph N/A   Overcast
3:35 AM 15.8 °F -0.2 °F 8.6 °F 73% 29.88 in 7.0 mi WSW 17.3 mph 25.3 mph N/A   Overcast
3:55 AM 15.8 °F 0.3 °F 6.8 °F 68% 29.88 in 8.0 mi WSW 16.1 mph - N/A   Overcast
4:15 AM 15.8 °F 0.9 °F 8.6 °F 73% 29.88 in 7.0 mi WSW 15.0 mph 19.6 mph N/A   Overcast
4:35 AM 15.8 °F 2.1 °F 8.6 °F 73% 29.89 in 5.0 mi SW 12.7 mph 19.6 mph N/A   Overcast
4:55 AM 14.0 °F -0.2 °F 8.6 °F 79% 29.89 in 4.0 mi WSW 12.7 mph 23.0 mph N/A   Overcast
5:15 AM 14.0 °F 1.2 °F 8.6 °F 79% 29.90 in 4.0 mi SW 10.4 mph - N/A   Overcast
5:35 AM 14.0 °F -0.8 °F 8.6 °F 79% 29.90 in 6.0 mi WSW 13.8 mph 18.4 mph N/A   Overcast
5:55 AM 14.0 °F -0.2 °F 8.6 °F 79% 29.90 in 7.0 mi SW 12.7 mph 24.2 mph N/A   Overcast
6:15 AM 15.8 °F 0.9 °F 8.6 °F 73% 29.91 in 8.0 mi WSW 15.0 mph 23.0 mph N/A   Overcast
6:35 AM 15.8 °F 2.1 °F 8.6 °F 73% 29.91 in 6.0 mi WSW 12.7 mph 23.0 mph N/A   Overcast
7:15 AM 15.8 °F 0.3 °F 8.6 °F 73% 29.92 in 2.5 mi WSW 16.1 mph 21.9 mph N/A   Overcast
7:35 AM 15.8 °F 1.4 °F 8.6 °F 73% 29.92 in 3.0 mi SW 13.8 mph 19.6 mph N/A   Overcast
7:55 AM 15.8 °F 0.9 °F 8.6 °F 73% 29.93 in 3.0 mi WSW 15.0 mph 20.7 mph N/A   Overcast
8:15 AM 15.8 °F 3.4 °F 10.4 °F 79% 29.94 in 1.5 mi WSW 10.4 mph 19.6 mph N/A   Overcast
8:35 AM 15.8 °F 0.3 °F 10.4 °F 79% 29.94 in 1.8 mi WSW 16.1 mph 19.6 mph N/A   Overcast
8:55 AM 15.8 °F 1.4 °F 10.4 °F 79% 29.94 in 1.5 mi WSW 13.8 mph 18.4 mph N/A   Overcast
9:15 AM 17.6 °F 5.0 °F 10.4 °F 73% 29.93 in 1.2 mi WSW 11.5 mph 20.7 mph N/A   Overcast
9:35 AM 17.6 °F 4.3 °F 10.4 °F 73% 29.94 in 1.8 mi West 12.7 mph 21.9 mph N/A   Overcast
9:55 AM 17.6 °F 3.2 °F 10.4 °F 73% 29.94 in 2.0 mi West 15.0 mph 26.5 mph N/A   Overcast
10:15 AM 17.6 °F 4.3 °F 10.4 °F 73% 29.95 in 1.8 mi West 12.7 mph 18.4 mph N/A   Overcast
10:35 AM 17.6 °F 3.7 °F 12.2 °F 79% 29.96 in 2.0 mi WSW 13.8 mph - N/A   Overcast
10:55 AM 17.6 °F 3.7 °F 12.2 °F 79% 29.97 in 1.8 mi West 13.8 mph - N/A   Overcast
11:15 AM 17.6 °F 1.7 °F 10.4 °F 73% 29.97 in 4.0 mi West 18.4 mph 24.2 mph N/A   Overcast
11:35 AM 17.6 °F 2.7 °F 10.4 °F 73% 29.98 in 2.0 mi West 16.1 mph 25.3 mph N/A   Overcast
11:55 AM 17.6 °F 5.7 °F 10.4 °F 73% 29.98 in 5.0 mi West 10.4 mph 21.9 mph N/A   Overcast
12:15 PM 17.6 °F 1.7 °F 10.4 °F 73% 29.99 in 3.0 mi West 18.4 mph 27.6 mph N/A   Overcast
12:35 PM 17.6 °F 1.7 °F 10.4 °F 73% 29.99 in 2.0 mi West 18.4 mph 25.3 mph N/A   Overcast
12:55 PM 17.6 °F 3.2 °F 6.8 °F 63% 29.99 in 4.0 mi WNW 15.0 mph 26.5 mph N/A   Overcast
1:15 PM 17.6 °F 3.7 °F 8.6 °F 68% 30.00 in 7.0 mi West 13.8 mph 18.4 mph N/A   Overcast
1:35 PM 17.6 °F 1.7 °F 8.6 °F 68% 30.00 in 4.0 mi West 18.4 mph 26.5 mph N/A   Mostly Cloudy
2:15 PM 17.6 °F 2.2 °F 6.8 °F 63% 30.01 in 5.0 mi West 17.3 mph 27.6 mph N/A   Overcast
2:35 PM 17.6 °F 3.7 °F 8.6 °F 68% 30.02 in 10.0 mi West 13.8 mph 24.2 mph N/A   Overcast
2:55 PM 17.6 °F 4.3 °F 8.6 °F 68% 30.03 in 5.0 mi West 12.7 mph 23.0 mph N/A   Mostly Cloudy
3:55 PM 17.6 °F 4.3 °F 10.4 °F 73% 30.04 in 6.0 mi West 12.7 mph 18.4 mph N/A   Overcast
4:15 PM 17.6 °F 5.7 °F 10.4 °F 73% 30.05 in 2.5 mi WNW 10.4 mph 18.4 mph N/A   Overcast
4:35 PM 17.6 °F 7.3 °F 12.2 °F 79% 30.06 in 1.8 mi West 8.1 mph - N/A   Overcast
4:55 PM 17.6 °F 5.0 °F 12.2 °F 79% 30.07 in 1.8 mi WNW 11.5 mph 17.3 mph N/A   Overcast
5:15 PM 17.6 °F 4.3 °F 10.4 °F 73% 30.08 in 7.0 mi West 12.7 mph 18.4 mph N/A   Mostly Cloudy
5:35 PM 17.6 °F 4.3 °F 8.6 °F 68% 30.09 in 10.0 mi West 12.7 mph 19.6 mph N/A   Mostly Cloudy
5:55 PM 17.6 °F 5.0 °F 10.4 °F 73% 30.10 in 7.0 mi WSW 11.5 mph 19.6 mph N/A   Overcast
6:15 PM 17.6 °F 5.7 °F 10.4 °F 73% 30.09 in 6.0 mi West 10.4 mph 17.3 mph N/A   Overcast
6:35 PM 17.6 °F 5.7 °F 10.4 °F 73% 30.10 in 7.0 mi West 10.4 mph - N/A   Overcast
6:55 PM 17.6 °F 5.0 °F 10.4 °F 73% 30.10 in 10.0 mi West 11.5 mph 18.4 mph N/A   Overcast
7:15 PM 17.6 °F 6.4 °F 10.4 °F 73% 30.10 in 10.0 mi West 9.2 mph - N/A   Overcast
7:35 PM 17.6 °F 7.3 °F 10.4 °F 73% 30.10 in 10.0 mi West 8.1 mph 17.3 mph N/A   Overcast
7:55 PM 17.6 °F 5.7 °F 10.4 °F 73% 30.10 in 10.0 mi West 10.4 mph - N/A   Overcast
8:15 PM 17.6 °F 6.4 °F 10.4 °F 73% 30.10 in 7.0 mi West 9.2 mph - N/A   Overcast
8:35 PM 17.6 °F 6.4 °F 10.4 °F 73% 30.10 in 9.0 mi West 9.2 mph - N/A   Overcast
8:55 PM 17.6 °F 7.3 °F 12.2 °F 79% 30.11 in 7.0 mi West 8.1 mph - N/A   Overcast
9:15 PM 17.6 °F 8.2 °F 12.2 °F 79% 30.11 in 7.0 mi West 6.9 mph - N/A   Overcast
9:35 PM 17.6 °F 6.4 °F 10.4 °F 73% 30.11 in 8.0 mi West 9.2 mph - N/A   Overcast
9:55 PM 17.6 °F 8.2 °F 12.2 °F 79% 30.11 in 6.0 mi WSW 6.9 mph - N/A   Overcast
10:15 PM 17.6 °F 8.2 °F 12.2 °F 79% 30.11 in 8.0 mi WSW 6.9 mph - N/A   Overcast
10:35 PM 17.6 °F 9.3 °F 12.2 °F 79% 30.11 in 5.0 mi WSW 5.8 mph - N/A   Overcast
10:55 PM 17.6 °F 8.2 °F 12.2 °F 79% 30.10 in 5.0 mi WSW 6.9 mph - N/A   Overcast
11:15 PM 17.6 °F 8.2 °F 10.4 °F 73% 30.10 in 7.0 mi WSW 6.9 mph - N/A   Overcast
11:35 PM 17.6 °F 5.7 °F 12.2 °F 79% 30.10 in 8.0 mi SW 10.4 mph - N/A   Overcast
11:55 PM 17.6 °F 7.3 °F 12.2 °F 79% 30.09 in 7.0 mi WSW 8.1 mph - N/A   Overcast